Temp
61 61 61 61 61 61 62 62 62 62 62 63 63 62 62 63 63 63 58 63 64 67 65 64 66 67 67 62 61 57 47 43 47 49 53 57 56 58 59 59 57 60 59 61 64
60 60 60 60 60 60 61 61 61 61 62 63 63 62 62 62 59 56 65 66 66 66 63 62 60 63 61 60 58 53 46 48 52 52 51 56 56 59 56 57 55 57 60 63 63
60 60 60 60 60 60 60 60 61 61 61 62 63 62 61 61 56 56 65 65 66 65 62 62 62 60 58 60 58 52 49 51 53 55 55 56 56 58 56 52 58 57 56 60 61
60 60 59 59 59 60 60 60 60 60 61 61 63 61 61 58 44 57 64 65 65 64 61 60 59 56 55 54 59 53 57 54 56 57 56 55 57 56 57 59 63 61 61 61 60
60 59 59 58 59 59 59 60 60 60 60 61 61 62 57 49 51 61 63 63 63 62 59 57 55 55 52 55 57 56 57 57 56 57 56 58 57 55 57 58 60 62 62 60 61
59 59 59 58 58 59 59 59 59 60 60 61 61 61 52 44 58 61 60 61 60 59 57 57 56 58 54 54 55 58 58 57 58 55 56 54 55 56 55 57 59 61 60 60 61
59 58 58 58 58 58 58 59 59 59 60 60 61 57 50 48 58 60 60 57 58 59 55 57 58 55 55 51 54 57 54 56 54 53 53 54 51 55 54 58 58 58 59 59 60
58 58 57 57 58 58 58 58 58 59 59 60 61 54 45 57 56 58 61 58 59 60 59 58 59 55 52 53 54 51 52 47 50 52 53 54 47 56 55 57 56 56 57 58 60
57 57 57 57 57 57 57 58 58 58 59 59 50 49 45 58 54 56 59 56 56 57 58 62 57 51 51 48 45 47 41 44 49 51 50 52 48 53 54 56 55 55 56 58 59
57 57 56 57 57 57 57 58 57 56 55 55 53 45 49 47 53 55 57 59 55 54 54 53 51 47 47 46 40 41 43 44 47 47 50 46 48 51 54 54 54 54 55 57 58
56 56 56 57 57 57 52 47 42 41 45 41 43 45 49 53 54 52 55 54 55 52 46 50 45 42 45 49 47 46 46 45 44 48 50 46 47 51 53 53 52 54 55 56 57
56 56 56 56 57 57 49 41 43 44 36 44 47 50 51 54 45 50 56 48 46 43 47 45 42 48 51 50 47 46 43 44 44 48 49 46 48 50 50 54 55 54 54 55 57
56 56 56 57 57 53 49 45 50 47 36 40 45 46 48 50 45 44 51 50 44 41 44 41 46 51 48 45 44 44 43 43 43 45 46 46 46 48 51 55 57 54 53 55 56
56 56 56 56 50 49 46 49 50 47 24 31 39 44 47 50 42 51 52 50 45 41 43 44 49 47 46 44 46 41 47 46 43 44 38 45 36 44 49 49 50 51 49 49 51
56 56 56 55 43 44 47 49 48 44 9 36 38 49 49 43 44 47 50 48 43 43 43 40 42 44 43 46 48 43 48 46 44 41 40 39 37 42 46 41 45 49 51 50 52
56 56 55 49 46 49 48 47 46 25 11 32 40 40 40 42 44 45 46 49 47 44 43 41 45 46 45 48 50 47 43 41 40 38 32 38 40 38 41 43 46 48 48 50 52
55 54 50 49 43 48 49 44 28 15 30 30 34 39 39 37 38 41 41 39 37 33 34 39 41 45 46 42 46 45 41 30 29 29 30 37 36 41 47 50 49 48 48 50 50
54 52 49 47 48 49 44 34 21 17 25 33 34 36 34 37 37 38 38 36 37 38 35 33 30 40 44 43 41 42 41 33 26 26 28 34 33 38 46 51 53 51 49 49 48
53 42 42 44 50 48 36 25 24 23 31 26 32 30 31 35 36 36 34 35 37 39 34 32 33 41 43 44 47 38 36 39 31 24 26 32 35 43 44 44 47 45 47 46 46
40 39 39 45 48 43 31 27 26 34 33 33 27 30 29 31 33 34 34 37 37 41 40 36 32 37 41 44 43 41 42 31 30 23 22 28 30 32 37 40 44 44 44 44 44
37 32 41 44 44 32 20 25 31 38 36 32 27 29 28 30 30 29 32 35 40 39 42 37 35 33 37 35 36 36 34 34 36 31 25 23 30 40 41 43 44 45 45 43 43
33 24 40 41 26 19 16 29 36 36 38 35 35 32 30 31 32 32 31 35 39 42 37 39 35 29 32 38 41 40 37 39 30 27 31 31 31 41 44 44 46 44 44 45 45
27 26 39 39 17 24 28 31 33 32 34 33 32 34 33 31 28 30 32 38 40 40 35 38 32 25 29 35 39 36 39 40 38 36 30 27 29 40 41 41 43 42 43 42 42
29 23 27 28 26 25 18 20 26 36 33 34 32 35 33 30 32 30 31 35 40 41 43 41 28 28 25 28 32 32 37 40 39 30 31 31 31 35 36 37 39 40 41 41 41
25 18 19 19 21 22 26 27 25 24 31 34 31 30 30 27 29 28 32 34 37 39 40 37 22 27 29 31 33 35 36 38 35 37 32 35 36 37 38 39 40 40 40 40 39
26 23 22 22 26 27 22 20 25 24 28 30 28 30 30 27 28 27 30 33 33 36 35 37 29 27 25 33 34 33 33 36 37 37 37 38 37 40 39 39 38 39 39 38 38
29 30 28 25 19 20 22 23 29 30 31 31 30 30 29 29 32 34 35 34 34 34 33 33 26 26 21 29 30 26 31 34 34 38 38 32 38 39 37 39 38 38 39 38 37
MSLP
1019.89 1019.77 1019.61 1019.55 1019.33 1019.22 1019.15 1018.99 1018.76 1018.56 1018.51 1018.25 1018.15 1018.14 1018.09 1017.87 1017.57 1017.34 1017.19 1017.05 1017.17 1017.09 1016.52 1016.27 1016.89 1016.69 1016.43 1017.20 1017.27 1017.60 1018.32 1018.47 1017.80 1017.16 1016.79 1016.21 1016.04 1016.15 1016.13 1016.57 1017.11 1017.25 1017.74 1017.79 1018.80
1019.84 1019.84 1019.71 1019.52 1019.47 1019.23 1019.22 1019.11 1018.99 1018.85 1018.60 1018.32 1018.42 1018.46 1018.14 1018.04 1017.71 1017.50 1017.01 1016.85 1017.05 1017.03 1017.27 1017.31 1017.04 1016.92 1017.16 1017.47 1017.54 1017.91 1018.43 1018.19 1017.43 1017.17 1017.08 1016.53 1016.38 1016.26 1016.51 1016.78 1017.31 1017.63 1018.11 1018.23 1018.85
1019.65 1019.71 1019.73 1019.68 1019.47 1019.41 1019.31 1019.22 1019.08 1018.95 1018.80 1018.51 1018.26 1018.40 1018.05 1018.23 1017.95 1017.24 1017.03 1017.16 1017.14 1017.25 1017.35 1017.33 1016.99 1017.71 1017.89 1017.55 1017.62 1017.85 1018.00 1017.89 1017.26 1017.09 1017.08 1016.77 1016.52 1016.35 1016.62 1017.00 1016.93 1017.42 1018.38 1018.83 1019.13
1019.53 1019.58 1019.68 1019.73 1019.68 1019.48 1019.36 1019.33 1019.16 1019.00 1018.90 1018.76 1018.31 1018.35 1018.41 1018.36 1018.34 1017.37 1017.07 1017.30 1017.20 1017.23 1017.37 1017.25 1017.52 1018.06 1017.68 1017.62 1017.42 1017.88 1017.51 1017.58 1017.34 1017.12 1017.18 1016.87 1016.79 1016.53 1016.55 1016.26 1016.11 1016.77 1017.57 1018.52 1019.10
1019.36 1019.52 1019.56 1019.71 1019.73 1019.64 1019.51 1019.43 1019.20 1019.06 1019.00 1018.86 1018.46 1018.31 1018.31 1018.29 1017.75 1017.38 1017.27 1017.19 1017.18 1017.28 1017.50 1017.52 1017.73 1017.70 1017.45 1017.33 1017.52 1017.48 1017.51 1017.30 1017.23 1017.14 1017.08 1016.77 1016.69 1016.74 1016.55 1016.35 1016.39 1017.01 1018.00 1018.57 1019.09
1019.15 1019.32 1019.52 1019.58 1019.62 1019.59 1019.47 1019.44 1019.30 1019.20 1019.00 1018.99 1018.74 1018.54 1018.52 1018.33 1017.48 1017.38 1017.42 1017.42 1017.52 1017.63 1017.76 1017.66 1017.59 1017.44 1017.43 1017.35 1017.42 1017.09 1017.13 1017.08 1016.95 1017.29 1017.08 1017.03 1016.83 1016.55 1016.65 1016.83 1017.14 1017.49 1018.14 1018.59 1018.89
1018.98 1019.12 1019.33 1019.43 1019.48 1019.55 1019.51 1019.37 1019.36 1019.30 1019.19 1019.11 1019.05 1018.92 1018.82 1018.13 1017.58 1017.56 1017.67 1017.77 1017.79 1017.71 1017.87 1017.87 1017.71 1017.72 1017.66 1017.79 1017.65 1017.11 1017.57 1017.40 1017.49 1017.51 1017.28 1017.37 1017.13 1016.71 1016.90 1017.21 1017.55 1017.98 1018.27 1018.67 1019.00
1018.74 1018.96 1019.07 1019.24 1019.30 1019.45 1019.47 1019.30 1019.28 1019.20 1019.24 1019.21 1019.14 1019.28 1018.73 1017.98 1017.95 1017.93 1017.72 1017.89 1017.80 1017.71 1017.83 1017.65 1017.57 1017.76 1018.00 1017.82 1017.72 1017.76 1017.97 1018.12 1017.91 1017.59 1017.45 1017.61 1017.41 1016.97 1017.17 1017.51 1017.95 1018.29 1018.53 1018.69 1018.92
1018.57 1018.78 1018.90 1018.98 1019.16 1019.27 1019.44 1019.28 1019.20 1019.13 1019.01 1019.08 1019.27 1019.26 1018.77 1018.23 1018.24 1018.02 1018.09 1018.07 1018.07 1018.02 1018.07 1017.82 1017.84 1018.22 1018.27 1018.06 1018.47 1018.15 1018.00 1018.13 1018.23 1018.20 1018.00 1017.93 1017.82 1017.71 1017.68 1017.85 1018.17 1018.35 1018.66 1018.82 1019.04
1018.30 1018.57 1018.74 1018.81 1019.04 1019.20 1019.38 1019.31 1019.27 1019.10 1019.02 1018.99 1019.17 1019.61 1018.98 1018.55 1018.28 1018.23 1018.30 1018.27 1018.23 1018.41 1018.28 1018.16 1018.30 1018.31 1018.33 1018.09 1017.88 1018.33 1018.49 1018.20 1018.32 1018.56 1018.25 1018.07 1018.07 1018.00 1018.04 1018.12 1018.27 1018.63 1018.74 1018.81 1018.84
1018.17 1018.47 1018.65 1018.77 1018.97 1019.14 1019.47 1019.58 1019.87 1019.89 1019.51 1019.12 1019.16 1019.06 1018.67 1018.48 1018.38 1018.47 1018.33 1018.58 1018.39 1018.53 1018.46 1018.42 1018.37 1017.81 1018.00 1017.88 1017.98 1018.11 1018.16 1018.44 1018.54 1018.63 1018.59 1018.40 1018.39 1018.14 1018.03 1018.34 1018.57 1018.79 1018.77 1018.76 1018.88
1018.05 1018.33 1018.48 1018.72 1018.93 1019.19 1019.71 1019.76 1019.41 1019.64 1019.55 1019.27 1019.21 1018.97 1018.73 1018.49 1018.68 1018.54 1018.56 1018.91 1018.87 1018.81 1018.74 1018.73 1017.97 1017.90 1017.99 1018.04 1018.28 1018.46 1018.57 1018.66 1019.26 1019.10 1018.81 1018.94 1018.58 1018.16 1018.21 1018.26 1018.47 1018.65 1018.98 1018.90 1019.27
1017.93 1018.13 1018.37 1018.64 1018.92 1019.39 1019.69 1019.55 1019.23 1019.28 1019.49 1019.38 1019.07 1018.80 1018.68 1018.62 1018.82 1018.53 1018.60 1018.47 1018.73 1018.81 1018.77 1018.50 1017.99 1017.81 1017.93 1018.26 1018.63 1018.47 1018.58 1018.74 1018.99 1019.29 1019.50 1019.18 1018.95 1018.75 1018.31 1018.28 1018.47 1018.93 1019.17 1019.34 1019.67
1017.86 1018.10 1018.36 1018.67 1019.49 1019.51 1019.69 1019.26 1019.15 1019.41 1020.00 1019.46 1019.05 1018.43 1018.68 1018.67 1018.78 1018.21 1018.15 1018.33 1018.51 1018.66 1018.78 1018.66 1018.11 1017.91 1017.91 1018.11 1018.46 1018.71 1018.61 1018.95 1019.26 1019.51 1019.87 1019.35 1019.25 1018.89 1018.70 1018.95 1019.35 1019.96 1020.18 1020.73 1020.68
1017.90 1018.06 1018.37 1018.80 1019.27 1019.54 1019.64 1019.24 1019.21 1019.59 1020.37 1019.66 1019.30 1018.75 1018.52 1018.88 1019.02 1018.54 1018.43 1018.67 1018.38 1018.66 1018.62 1018.38 1018.11 1018.21 1017.88 1017.87 1018.43 1018.82 1019.08 1019.24 1019.75 1019.83 1020.05 1020.13 1020.04 1018.81 1018.86 1019.59 1019.92 1020.28 1021.27 1021.61 1021.95
1017.92 1018.16 1018.57 1019.09 1019.47 1019.54 1019.39 1019.28 1019.58 1020.95 1020.86 1019.86 1019.29 1019.02 1019.04 1019.04 1019.02 1018.77 1018.77 1018.88 1018.98 1018.73 1018.76 1018.74 1018.31 1018.24 1018.13 1018.22 1018.24 1019.08 1019.80 1020.15 1020.61 1020.64 1020.61 1019.87 1019.83 1018.99 1018.94 1019.01 1020.05 1021.04 1021.83 1022.36 1022.99
1018.14 1018.54 1018.86 1019.19 1019.75 1019.64 1019.38 1019.95 1021.24 1021.63 1021.47 1020.78 1019.82 1019.24 1019.01 1019.15 1019.24 1018.82 1018.91 1019.08 1019.02 1019.11 1019.02 1019.24 1019.11 1018.85 1018.71 1018.72 1018.93 1018.89 1019.86 1020.89 1021.51 1021.47 1020.89 1020.45 1020.43 1018.82 1018.78 1018.85 1019.56 1020.92 1021.97 1022.52 1023.76
1018.49 1018.85 1019.71 1019.81 1019.80 1019.71 1020.35 1021.39 1021.89 1022.02 1021.89 1021.22 1020.59 1019.92 1019.28 1019.20 1019.35 1019.21 1018.98 1019.14 1019.65 1019.34 1019.25 1019.61 1019.83 1019.11 1018.76 1018.59 1018.40 1019.00 1019.58 1020.54 1021.08 1021.66 1021.51 1021.04 1020.08 1018.95 1018.67 1019.12 1019.55 1020.82 1022.37 1023.04 1024.00
1018.68 1019.68 1020.26 1020.47 1020.06 1020.06 1021.25 1021.60 1021.76 1022.17 1021.83 1021.50 1021.06 1020.29 1019.89 1019.45 1019.42 1019.72 1019.67 1019.52 1019.60 1019.43 1019.65 1019.87 1019.73 1019.49 1019.48 1018.88 1018.61 1019.69 1019.99 1021.04 1021.34 1022.23 1021.85 1020.97 1020.12 1019.34 1019.29 1019.85 1020.44 1021.34 1022.18 1023.23 1023.72
1019.53 1020.18 1020.80 1020.62 1020.30 1020.67 1021.57 1022.06 1022.09 1021.76 1021.70 1021.50 1020.91 1020.41 1019.90 1019.75 1019.78 1019.89 1019.60 1019.43 1019.44 1019.55 1019.74 1020.01 1020.31 1020.14 1019.72 1019.53 1019.69 1019.46 1020.16 1021.36 1021.52 1022.07 1021.95 1021.28 1020.72 1019.80 1019.88 1020.16 1020.98 1021.69 1022.51 1023.64 1024.44
1020.13 1020.76 1020.88 1020.71 1020.84 1021.43 1022.54 1022.55 1022.00 1021.51 1021.34 1021.22 1020.91 1020.40 1020.13 1019.66 1019.77 1019.93 1020.12 1020.17 1019.59 1020.02 1020.01 1020.09 1020.12 1020.88 1020.38 1019.99 1019.97 1020.28 1020.23 1020.92 1021.16 1021.39 1021.23 1021.28 1020.36 1019.92 1019.70 1020.38 1020.88 1021.80 1022.92 1024.30 1025.17
1020.88 1021.71 1020.94 1020.70 1022.05 1023.57 1023.82 1023.09 1022.22 1021.67 1021.36 1021.11 1020.91 1020.60 1020.29 1019.99 1019.87 1020.05 1020.18 1020.23 1020.00 1019.78 1019.98 1020.08 1020.40 1020.69 1020.78 1020.63 1020.24 1019.99 1019.90 1019.98 1020.51 1021.24 1021.11 1020.86 1020.73 1020.42 1020.32 1020.86 1021.56 1022.64 1023.83 1024.93 1025.70
1021.69 1021.99 1021.17 1021.04 1023.26 1024.50 1024.18 1023.33 1022.67 1022.03 1021.85 1021.44 1021.08 1020.83 1020.49 1020.26 1020.30 1020.21 1020.12 1020.23 1019.96 1020.09 1020.04 1020.08 1020.61 1021.24 1021.44 1021.16 1020.52 1020.18 1019.79 1019.91 1019.92 1020.08 1020.74 1021.22 1021.32 1021.20 1021.25 1021.72 1022.79 1023.21 1024.69 1025.78 1026.58
1022.08 1023.08 1022.86 1023.22 1024.38 1024.69 1024.86 1024.12 1023.00 1022.36 1022.15 1021.87 1021.59 1021.05 1020.86 1020.68 1020.55 1020.46 1020.58 1020.55 1020.30 1020.33 1020.25 1020.08 1021.01 1021.15 1021.19 1020.90 1020.55 1020.48 1019.99 1019.56 1019.57 1020.31 1020.55 1020.99 1021.48 1022.08 1022.25 1022.51 1023.59 1024.42 1025.38 1026.08 1026.56
1022.51 1024.59 1024.75 1024.92 1025.02 1025.03 1024.62 1024.21 1023.51 1022.90 1022.41 1022.19 1021.94 1021.96 1021.49 1021.25 1021.25 1021.18 1021.04 1020.99 1020.98 1020.85 1020.67 1020.83 1021.70 1021.82 1021.71 1021.34 1021.00 1020.76 1020.24 1019.71 1019.76 1020.04 1020.48 1020.90 1021.32 1021.97 1022.31 1022.68 1023.73 1024.62 1025.51 1026.31 1027.04
1022.67 1024.00 1025.13 1025.21 1025.37 1025.12 1024.84 1024.65 1023.89 1023.58 1023.27 1022.77 1022.69 1022.43 1021.75 1022.12 1022.19 1021.69 1021.43 1021.32 1021.14 1021.38 1021.31 1021.62 1022.29 1022.41 1022.43 1021.79 1021.52 1021.29 1020.67 1020.52 1020.38 1020.57 1020.71 1020.67 1021.20 1021.70 1022.70 1023.48 1024.49 1025.15 1025.77 1026.64 1027.46
1022.64 1022.86 1023.26 1025.35 1025.63 1025.73 1025.09 1024.44 1023.97 1023.60 1023.71 1023.42 1023.36 1023.18 1022.89 1023.13 1022.98 1022.58 1022.30 1022.01 1021.77 1021.65 1021.96 1022.26 1022.74 1023.21 1023.35 1022.61 1022.19 1021.56 1020.03 1019.94 1020.00 1020.15 1020.37 1020.89 1020.89 1021.81 1023.19 1024.08 1024.68 1025.36 1025.92 1026.77 1027.73
Wind_Speed
6 6 8 9 8 5 5 7 8 9 10 11 8 10 10 11 10 0 3 2 2 3 6 6 1 1 4 1 1 3 4 2 2 1 5 5 2 1 2 7 1 2 4 4 16
6 5 5 7 9 7 5 6 7 9 10 12 5 8 9 10 2 3 2 3 2 4 1 4 2 4 1 3 1 4 3 6 2 2 2 6 2 5 2 4 1 3 6 13 17
7 6 4 5 7 9 6 6 7 8 10 12 6 6 8 6 2 1 4 2 2 2 1 1 4 2 4 3 4 3 5 2 0 2 3 4 3 2 7 2 7 7 10 12 16
9 7 5 3 5 7 8 7 7 7 9 10 7 3 5 2 6 3 5 4 3 3 1 4 4 7 6 5 4 4 4 1 2 3 4 4 5 2 5 5 3 11 17 14 16
10 9 7 5 3 6 6 7 7 7 8 10 8 5 2 1 4 4 5 5 5 1 3 4 5 5 6 4 5 5 6 2 2 6 4 4 6 3 5 4 6 14 14 14 13
10 7 8 6 5 4 6 7 7 8 7 8 9 4 2 3 3 3 5 3 3 1 2 3 4 3 3 4 5 9 6 3 3 3 4 2 4 3 2 4 8 14 13 11 13
9 7 7 7 6 4 5 7 7 7 5 8 9 1 1 8 2 2 3 1 3 0 2 1 2 2 5 5 2 5 4 1 2 1 2 3 3 7 3 5 9 9 9 9 8
9 7 7 7 6 5 4 8 7 8 4 6 8 1 5 3 0 2 2 3 4 3 3 1 1 5 2 2 4 5 3 5 2 2 1 4 8 4 4 9 9 7 6 7 8
7 7 8 8 5 5 3 6 9 5 5 5 1 3 4 1 1 2 3 2 2 3 2 0 3 3 1 5 3 1 5 7 3 3 1 5 6 4 1 5 6 7 6 6 6
8 7 7 7 5 4 2 6 4 3 3 2 2 1 2 1 1 2 1 1 2 1 2 3 2 3 2 5 8 5 6 4 11 2 0 2 5 3 4 4 6 6 6 6 7
7 7 7 8 6 3 2 3 4 3 1 6 2 3 1 2 0 3 3 2 2 2 4 2 3 5 5 7 3 3 4 4 2 2 4 1 4 5 3 3 6 7 7 8 4
7 7 8 7 6 4 4 1 3 1 3 2 3 2 0 2 1 3 4 5 4 6 3 2 11 5 4 4 4 2 6 6 2 3 4 3 6 4 3 4 6 6 6 5 5
7 6 8 7 5 2 4 5 1 2 2 2 3 2 2 4 2 4 7 5 5 8 7 3 1 8 5 5 5 4 5 5 3 4 3 5 3 3 2 2 4 7 3 3 6
6 9 8 5 4 4 4 3 1 1 5 5 5 5 3 3 4 3 8 5 3 10 8 6 4 7 5 6 6 8 6 2 8 8 5 1 4 6 5 5 8 8 8 5 7
5 7 8 9 5 4 1 3 3 4 4 2 2 3 4 5 2 1 2 1 4 6 6 5 9 8 6 6 9 1 0 7 3 4 3 2 3 2 6 3 5 8 8 8 6
6 9 11 3 2 0 3 2 3 6 7 3 3 5 5 5 2 2 4 2 2 5 3 1 2 1 2 3 11 8 5 7 5 3 4 7 7 4 6 8 7 8 8 8 9
11 11 5 2 3 2 2 4 2 4 4 2 2 7 9 5 3 4 6 9 4 4 9 1 2 2 3 6 8 6 8 1 1 3 3 2 5 1 1 12 14 15 12 11 9
12 10 6 3 1 2 5 2 4 3 4 1 2 1 9 5 3 2 2 10 0 2 4 5 4 5 1 1 5 6 7 4 7 5 2 3 7 4 4 8 18 14 12 10 10
8 3 3 5 1 3 4 2 2 5 3 1 2 6 5 4 4 4 5 5 5 4 4 7 3 2 1 3 6 4 4 2 5 2 2 3 4 5 3 5 14 14 12 10 10
3 3 2 7 1 3 3 1 3 1 1 3 2 1 11 9 8 8 6 2 6 4 2 4 4 3 3 1 5 1 12 4 1 6 3 3 4 4 4 6 12 13 15 12 11
5 4 3 4 2 5 3 3 2 1 3 2 2 2 2 5 7 7 5 2 2 9 3 4 1 1 1 1 5 3 4 3 3 1 4 3 5 4 6 9 15 15 14 13 12
3 3 2 2 5 2 2 1 3 3 2 2 2 2 1 1 4 6 8 3 1 4 5 2 3 3 1 2 4 2 4 3 4 4 3 2 3 7 5 7 13 16 13 11 11
3 2 3 4 3 1 1 1 1 3 3 3 1 2 0 1 2 3 5 2 5 1 7 7 1 4 2 2 2 3 5 5 2 2 3 3 4 5 9 12 9 17 13 11 9
4 3 5 5 2 5 3 3 2 1 1 2 4 3 1 1 4 4 5 1 3 1 4 4 3 4 6 2 3 3 5 6 4 4 3 2 4 3 7 15 12 12 10 9 8
4 2 3 1 4 2 1 2 2 4 4 4 3 5 3 1 2 2 3 3 4 3 4 3 4 3 2 1 2 1 1 6 2 3 5 2 4 7 10 15 13 13 10 10 8
5 5 2 2 2 2 4 2 2 2 4 4 4 9 7 4 3 1 1 2 3 1 2 1 3 2 3 3 5 4 12 9 3 7 4 4 3 2 6 7 10 10 10 9 7
1 2 5 3 2 3 3 4 2 3 2 4 2 3 10 5 3 6 6 5 4 4 4 3 5 2 3 2 1 4 8 13 7 10 12 8 6 9 7 10 10 10 9 9 8
Wind_Direction
326 338 344 340 326 340 340 335 352 357 352 343 352 0 359 346 325 282 217 172 152 321 333 5 307 0 74 275 51 112 58 121 255 280 315 354 9 342 98 113 77 73 146 159 129
329 323 325 336 336 333 339 336 334 341 346 345 352 359 2 344 313 267 130 102 331 348 170 210 105 27 114 212 86 96 121 206 215 297 319 300 234 174 118 111 129 58 33 124 134
298 318 303 319 328 334 333 343 338 330 339 341 338 349 -0 327 324 247 29 49 296 309 278 163 86 78 218 166 174 168 186 199 200 317 1 286 298 153 133 227 214 176 149 148 148
284 288 303 278 314 323 338 338 332 333 330 337 314 12 354 321 184 351 17 349 333 308 280 114 116 172 171 177 160 143 237 191 301 5 333 318 309 266 207 223 225 159 159 154 164
266 274 270 292 271 311 319 327 334 325 328 336 343 342 347 42 267 26 2 351 347 99 221 175 153 165 171 182 135 180 187 204 268 316 274 311 264 226 244 337 111 133 154 164 171
263 255 259 254 244 287 307 318 326 326 325 332 344 341 326 247 356 37 25 10 17 74 156 167 207 196 139 172 194 178 172 192 328 324 302 339 307 125 235 124 120 146 165 169 177
256 254 258 253 255 226 302 305 317 323 326 320 332 277 27 238 12 37 22 30 343 248 161 214 168 192 168 154 183 121 151 234 169 91 306 318 295 235 137 143 146 165 166 169 189
247 244 269 255 258 215 280 302 313 315 318 303 316 228 242 349 314 356 357 39 22 29 90 159 180 102 56 215 51 126 121 197 152 15 274 131 272 334 151 152 171 177 181 180 195
236 241 263 250 229 222 273 303 309 295 290 309 54 191 240 102 150 208 6 89 57 17 66 228 66 105 74 107 66 308 197 216 187 96 197 173 255 340 297 171 187 188 189 200 209
242 240 252 231 209 196 266 295 315 324 326 63 75 67 294 207 173 182 36 259 76 96 82 58 74 135 148 168 205 182 208 186 203 214 122 132 256 335 357 211 197 199 205 208 214
223 232 237 214 206 211 43 46 39 1 308 187 159 247 210 298 281 219 159 165 108 1 194 184 174 202 186 200 114 176 190 176 67 139 148 218 241 266 323 270 202 212 207 225 220
217 230 218 199 202 194 97 156 223 260 261 208 291 229 331 133 48 277 144 177 163 210 146 145 229 192 155 184 192 181 210 203 81 341 138 159 264 241 279 258 218 217 234 225 128
213 212 188 182 191 174 202 229 336 349 95 237 203 210 170 138 246 250 175 188 180 182 197 223 286 155 148 150 191 220 220 201 174 141 9 130 257 217 140 84 33 38 0 100 141
179 182 181 171 140 171 216 308 148 125 64 264 194 232 132 118 263 222 205 176 232 192 155 243 194 176 176 193 158 239 183 128 129 161 204 143 254 232 187 88 55 34 34 47 90
179 180 187 144 144 163 333 300 119 55 42 271 155 318 149 156 354 195 10 150 187 193 168 194 172 181 193 207 181 192 352 145 154 142 116 229 202 166 162 135 106 70 38 36 38
149 143 120 79 59 208 270 294 62 54 259 180 135 184 164 163 257 140 165 62 75 186 23 116 306 287 173 151 181 142 87 46 45 76 223 172 198 195 192 158 122 106 87 60 49
100 84 64 60 129 306 70 44 132 160 273 219 216 197 198 157 200 195 170 186 183 161 179 78 277 269 247 103 147 148 121 96 176 189 236 298 188 310 181 147 138 132 114 107 100
103 80 56 58 285 85 42 99 220 201 230 321 291 253 200 142 215 128 286 177 334 95 120 170 205 180 89 186 157 165 155 187 181 195 158 4 226 236 234 146 148 128 129 121 116
92 32 48 341 335 89 89 151 159 213 202 267 180 194 198 179 155 209 213 165 144 177 166 178 229 330 24 340 138 148 147 28 104 43 97 203 290 300 90 118 142 135 116 103 85
82 70 23 322 40 78 80 150 207 166 217 217 224 245 188 189 164 188 168 175 134 131 253 204 144 20 350 220 50 255 143 124 23 150 207 249 271 230 181 151 150 138 121 117 112
53 64 266 353 57 49 150 238 302 271 187 273 259 268 210 175 170 149 194 286 166 161 218 162 325 113 242 348 147 136 135 82 107 158 145 148 252 329 186 167 142 133 131 136 126
95 53 315 57 50 51 121 205 321 343 20 321 267 259 275 294 159 169 168 153 82 154 161 109 138 106 77 261 276 198 169 145 131 208 250 185 261 317 164 107 128 121 117 110 107
99 209 337 85 123 355 283 272 273 10 352 330 323 309 259 69 132 134 158 130 139 192 160 186 89 74 39 325 48 229 172 181 107 64 198 145 263 15 89 92 105 116 118 116 116
91 45 337 54 122 135 147 285 330 113 139 79 350 314 170 90 25 138 159 141 78 9 57 90 104 161 177 154 116 194 203 173 149 131 182 220 150 143 126 124 122 117 119 118 111
35 250 200 287 336 89 61 161 15 3 355 15 30 354 276 85 57 67 118 114 53 333 32 69 116 92 49 285 16 35 234 160 143 58 135 221 131 177 160 144 142 133 125 123 116
129 136 345 114 327 319 353 301 128 296 15 23 66 17 46 75 344 217 127 125 152 113 83 6 112 96 9 35 163 234 180 208 126 131 315 177 187 120 100 103 135 144 139 134 128
246 39 103 336 20 69 250 205 164 139 110 65 13 47 47 31 353 39 70 69 84 140 138 126 130 92 232 340 165 309 207 192 181 177 161 184 196 146 140 156 163 154 154 150 142